Location: Moy Burn
(57.3833°N, 4.0667°W)
Time: 11:37:51
(UTC+00:00)

Cosmos 2233 Rocket - Pass Details

Date: 08 August 2020
Orbit: 952 x 991 km, 82.9° (Epoch: 21 September)

Event Time Altitude Azimuth Distance (km) Brightness Sun altitude
Exits shadow 23:14:27 23° 157° (SSE) 1,990 5.0 -15.5°
Maximum altitude 23:18:18 51° 91° (E) 1,231 4.4 -15.7°
Drops below altitude 10° 23:24:24 10° 18° (NNE) 2,768 7.3 -15.9°
Sets 23:27:00 0° 14° (NNE) 3,719 8.2 -16.0°
